User: anonymous   Login
Location: Unspecified
(0.0000°N, 0.0000°E)
Time: 04:15:16
(UTC+00:00)
Language:

STARLINK-34807 - Orbit

View from above orbital plane
View from above orbital plane
View from above satellite
View from above satellite

Ground track
Ground track

The orbit is defined by the following mean orbital elements,

1 65028U          26145.43036975 +.00000000 +00000-0 +75468-3 0 00002
2 65028  53.1597 297.4289 0001089 102.1822 257.9301 15.30208229    07
Epoch (UTC): 25 May 2026 10:19:43
Eccentricity: 0.0001089
inclination: 53.1597°
perigee height: 474 km
apogee height: 476 km
right ascension of ascending node: 297.4289°
argument of perigee: 102.1822°
revolutions per day: 15.30208229
mean anomaly at epoch: 257.9301°

The dashed part of the orbit path shows where the satellite is in the earth's shadow,  

DLR